Tracking 27122 objects as of 24-Mar-2023
HD Live streaming from Space Station
objects crossing your sky now

SL-16 DEB

Track SL-16 DEB now!
10-day predictions


NORAD ID: 44576
Int'l Code: 1993-059N
Perigee: 710.2 km
Apogee: 726.5 km
Inclination: 71.0 °
Period: 99.0 minutes
Semi major axis: 7089 km
RCS: Unknown
Launch date: September 16, 1993
Source: Commonwealth of Independent States (former USSR) (CIS)
Launch site: TYURATAM MISSILE AND SPACE COMPLEX (TTMTR)

Note: This is SATELLITE DEBRIS
Your satellite tracking list
Your tracking list is empty




NASA's NSSDC Master Catalog

Two Line Element Set (TLE):
1 44576U 93059N   23083.23583021  .00560797  00000-0  12478+0 0  9997
2 44576  70.9713  25.7196 0011528 287.7583  72.2302 14.54435768383144
Source of the keplerian elements: AFSPC